GALAXY 14 (G-14)

Last updated on Tue Oct 08 2024 00:02:37 GMT+0000 (Coordinated Universal Time)

1 28790U 05030A 24281.32167868 -.00000254 00000+0 00000+0 0 9992 2 28790 3.4145 82.4346 0002308 148.8356 226.3725 0.99693473 70116
UTC large
Height (km)
Speed (km/s)
/
Latitude / Longitude
Inclination (degrees)
Orbital Period (minutes)
Azimuth
Elevation
Range (km)
Doppler Factor

Next 0 passes for location: London (51.5072 / 0.1276)

Sorry there are no passes over London.